Albany, NY

7:45 PM EST on December 12, 2019 (GMT -0500)
Albany International

Weather History for KALB - August, 2019

Change the Weather History Date:

Thursday, August 15, 2019

  Actual Average Record
Temperature  
Mean Temperature 73 °F 71 °F  
Max Temperature 83 °F 81 °F 96 °F (1944)
Min Temperature 62 °F 60 °F 48 °F (1950)
Degree Days  
Heating Degree Days 0 0  
Month to date heating degree days 0 0  
Since 1 June heating degree days 27 57  
Since 1 July heating degree days 0 5  
Cooling Degree Days 8 6  
Month to date cooling degree days 116 99  
Year to date cooling degree days 622 465  
Since 1 June cooling degree days 600 435  
Growing Degree Days 22 (Base 50)    
Moisture  
Dew Point 59 °F    
Average Humidity 67    
Maximum Humidity 79    
Minimum Humidity 54    
Precipitation  
Precipitation 0.19 in 0.11 in 2.67 in (2011)
Month to date precipitation 2.23 1.81  
Year to date precipitation 27.09 24.50  
Sea Level Pressure  
Sea Level Pressure 30.00 in    
Wind  
Wind Speed 5 mph (North)    
Max Wind Speed 21 mph    
Max Gust Speed 24 mph    
Visibility 10 miles    
Events Rain , Thunderstorm    
T = Trace of Precipitation, MM = Missing Value Source: NWS Daily Summary

Daily Weather History Graph

Daily Weather History Graph

Search for Another Location

Airport or City:

Astronomy

Aug. 15, 2019 Rise Set
Actual Time 6:01 AM EDT 7:57 PM EDT
Civil Twilight 5:30 AM EDT 8:27 PM EDT
Nautical Twilight 4:53 AM EDT 9:04 PM EDT
Astronomical Twilight 4:12 AM EDT 9:45 PM EDT
Moon 8:24 PM EDT (8/15) 5:51 AM EDT (8/15)
Length of Visible Light 14h 57m
Length of Day
13h 55m
Full, 100% of the Moon is Illuminated
Aug 15
Full
Aug 23
Last Quarter
Aug 30
New
Sep 5
First Quarter
Sep 14
Full

Hourly Weather History & Observations

Time (EDT) Temp. Heat Index Dew Point Humidity Pressure Visibility Wind Dir Wind Speed Gust Speed Precip Events Conditions
12:51 AM 66.9 °F - 53.1 °F 61% 29.98 in 10.0 mi North 4.6 mph - N/A   Mostly Cloudy
1:51 AM 64.9 °F - 55.9 °F 73% 29.98 in 10.0 mi NNW 3.5 mph - N/A   Scattered Clouds
2:51 AM 63.0 °F - 55.0 °F 75% 29.99 in 10.0 mi NNW 6.9 mph - N/A   Partly Cloudy
3:51 AM 63.0 °F - 55.0 °F 75% 29.99 in 10.0 mi NW 4.6 mph - N/A   Partly Cloudy
4:51 AM 62.1 °F - 54.0 °F 75% 30.00 in 10.0 mi North 4.6 mph - N/A   Partly Cloudy
5:51 AM 62.1 °F - 54.0 °F 75% 30.01 in 10.0 mi North 5.8 mph - N/A   Scattered Clouds
6:51 AM 63.0 °F - 54.0 °F 72% 30.03 in 10.0 mi North 3.5 mph - N/A   Mostly Cloudy
7:51 AM 64.0 °F - 54.0 °F 70% 30.04 in 10.0 mi North 5.8 mph - N/A   Mostly Cloudy
8:51 AM 68.0 °F - 55.0 °F 63% 30.05 in 10.0 mi North 8.1 mph - N/A   Partly Cloudy
9:51 AM 70.0 °F - 57.0 °F 63% 30.05 in 10.0 mi Variable 5.8 mph - N/A   Partly Cloudy
10:51 AM 73.9 °F - 57.9 °F 57% 30.05 in 10.0 mi Variable 3.5 mph - N/A   Partly Cloudy
11:51 AM 75.9 °F - 59.0 °F 56% 30.04 in 10.0 mi Calm Calm - N/A   Scattered Clouds
12:51 PM 78.1 °F - 60.1 °F 54% 30.03 in 10.0 mi Variable 4.6 mph - N/A   Scattered Clouds
1:51 PM 80.1 °F 81.2 °F 62.1 °F 54% 30.01 in 10.0 mi NE 4.6 mph - N/A   Mostly Cloudy
2:51 PM 81.0 °F 82.2 °F 63.0 °F 54% 29.99 in 10.0 mi NW 3.5 mph - N/A   Scattered Clouds
3:51 PM 81.0 °F 81.9 °F 62.1 °F 52% 29.97 in 10.0 mi North 8.1 mph - N/A   Scattered Clouds
4:51 PM 80.1 °F 81.2 °F 62.1 °F 54% 29.97 in 10.0 mi NNW 5.8 mph - N/A   Mostly Cloudy
5:51 PM 79.0 °F - 63.0 °F 58% 29.96 in 10.0 mi NNE 4.6 mph - 0.00 in Rain Light Rain
6:51 PM 77.0 °F - 66.9 °F 71% 29.97 in 10.0 mi NE 3.5 mph - 0.00 in   Overcast
7:51 PM 75.9 °F - 66.0 °F 71% 29.98 in 10.0 mi Calm Calm - N/A   Mostly Cloudy
8:51 PM 73.9 °F - 66.0 °F 76% 29.99 in 10.0 mi SSE 4.6 mph - 0.00 in   Overcast
9:51 PM 73.9 °F - 64.0 °F 71% 30.00 in 10.0 mi South 4.6 mph - N/A   Overcast
10:51 PM 73.9 °F - 61.0 °F 64% 30.01 in 10.0 mi South 8.1 mph - N/A   Overcast
11:51 PM 70.0 °F - 63.0 °F 78% 30.04 in 10.0 mi SSW 9.2 mph - 0.03 in Rain , Thunderstorm Light Thunderstorms and Rain